User: anonymous   Login
Location: Mentone
(34.5413°N, 85.5351°W)
Time: 21:45:19
(UTC-05:00)
Language:

ADEOS Rocket - Orbit

View from above orbital plane
View from above orbital plane
View from above satellite
View from above satellite

Ground track
Ground track

The orbit data is extracted from the following two-line orbital elements,

1 24279U 96046C   16182.55419334  .00000024  00000-0  71973-4 0  9998
2 24279  98.7024 164.8478 0301171 105.4390   1.5440 13.47053056976908
Epoch (UTC): 30 June 2016 13:18:02
Eccentricity: 0.0301171
inclination: 98.7024°
perigee height: 858 km
apogee height: 1308 km
right ascension of ascending node: 164.8478°
argument of perigee: 105.4390°
revolutions per day: 13.47053056
mean anomaly at epoch: 1.5440°
orbit number at epoch: 97690

The dashed part of the orbit path shows where the satellite is in the earth's shadow,  

DLR